Regional Weather Roundup
Issued by NWS Bismarck, ND

Home | Current Version | Previous Version | Text Only | Print | Product List | Glossary On
Versions: 1 2 3 4 5 6 7 8 9 10 11 12 13 14 15 16 17 18 19 20 21 22 23 24 25 26 27 28 29 30 31 32 33 34 35 36 37 38 39 40 41 42 43 44 45 46 47 48 49 50
000
ASUS43 KBIS 230002
RWRBIS

NWR BROADCAST TEXT
NATIONAL WEATHER SERVICE BISMARCK ND
700 PM CDT THU JUN 22 2017

NOTE: "FAIR" INDICATES FEW OR NO CLOUDS BELOW 12,000 FEET WITH NO
SIGNIFICANT WEATHER AND/OR OBSTRUCTIONS TO VISIBILITY.


CITY           SKY/WX    TMP DP  RH WIND       PRES   REMARKS
WILLISTON      CLOUDY    63  47  55 W25G36    29.88R
MINOT          MOSUNNY   66  41  40 W31G43    29.76R
MINOT AFB      MOSUNNY   62  45  52 W28G33    29.75R
BISMARCK       MOSUNNY   74  32  21 W22G36    29.81S
DICKINSON      MOSUNNY   69  24  18 NW28G44   29.86R
GARRISON         N/A     67  37  33 NW29G38   29.78S
HETTINGER ARPT MOSUNNY   72  29  20 NW23G32   29.91S
JAMESTOWN      MOSUNNY   73  34  23 W22G32    29.75F
HAZEN          FAIR      72  32  23 NW23G35   29.82S
LINTON         MOCLDY   N/A N/A N/A NW23G30   29.83R
MANDAN         FAIR      72  32  23 W24G37    29.82S
STANLEY        MOCLDY    59  45  58 NW28G37   29.84S
TIOGA          CLOUDY    57  46  67 NW32G43   29.85S
WATFORD CITY   FAIR      63  43  48 NW23G40   29.88R
$$

CITY           SKY/WX    TMP DP  RH WIND       PRES   REMARKS
GRAND FORKS    PTSUNNY   74  40  29 W17G30    29.66F
GRAND FORKS AF MOSUNNY   72  38  28 NW21G29   29.67F
DEVILS LAKE    SUNNY     67  41  38 W31G38    29.71R
FARGO          SUNNY     76  36  23 W22G31    29.72R
CAVALIER       FAIR      66  45  45 W16G31    29.64S
GRAFTON        FAIR      70  46  43 NW21G29   29.67R
GWINNER        CLEAR     75  37  25 NW17G24   29.77S
LANGDON        FAIR      64  41  42 W33G45    29.66F
ROLLA            N/A     61  43  51 NW29G37   29.68S
$$

CITY           SKY/WX    TMP DP  RH WIND       PRES   REMARKS
ABERDEEN       MOSUNNY   79  40  24 NW17G28   29.78S
MOBRIDGE       MOSUNNY   77  36  22 NW13      29.80S
BUFFALO          N/A     71  32  23 NW29G38   29.89F
RAPID CITY     MOSUNNY   77  34  21 N21       29.92R
GLASGOW        LGT RAIN  55  48  77 NW23G30   30.04R
SIDNEY         MOSUNNY   64  43  46 NW29G36   29.92R
WOLF POINT     CLOUDY    61  48  62 NW31G40   29.99R
GLENDIVE       SUNNY     64  37  36 NW35G41   29.98R
MILES CITY     MOSUNNY   73  30  20 NW24G38   29.99R
BAKER          PTSUNNY   68  28  22 NW26G43   29.95S
$$

CITY           SKY/WX    TMP DP  RH WIND       PRES   REMARKS
BILLINGS       MOSUNNY   70  28  21 N25G33    30.07R
GREAT FALLS    MOSUNNY   60  34  37 N15G24    30.23R
$$





USA.gov is the U.S. government's official web portal to all federal, state and local government web resources and services.